TimeEDT,TemperatureF,Dew PointF,Humidity,Sea Level PressureIn,VisibilityMPH,Wind Direction,Wind SpeedMPH,Gust SpeedMPH,PrecipitationIn,Events,Conditions,WindDirDegrees,DateUTC
12:53 AM,60.1,57.0,90,29.88,10.0,Calm,Calm,-,N/A,,Clear,0,2013-08-02 04:53:00
1:53 AM,60.1,57.0,90,29.86,10.0,Variable,3.5,-,N/A,,Clear,0,2013-08-02 05:53:00
2:53 AM,60.1,55.9,86,29.84,10.0,SSE,5.8,-,N/A,,Clear,160,2013-08-02 06:53:00
3:39 AM,60.8,57.2,88,29.83,10.0,SSE,5.8,-,N/A,,Mostly Cloudy,150,2013-08-02 07:39:00
3:53 AM,61.0,57.0,87,29.83,10.0,Variable,4.6,-,N/A,,Overcast,0,2013-08-02 07:53:00
4:04 AM,60.8,57.2,88,29.83,10.0,SSE,5.8,-,N/A,,Overcast,160,2013-08-02 08:04:00
4:50 AM,60.8,57.2,88,29.83,4.0,South,4.6,-,0.00,Rain,Light Rain,170,2013-08-02 08:50:00
4:53 AM,60.1,57.9,93,29.83,4.0,South,5.8,-,0.00,Rain,Light Rain,170,2013-08-02 08:53:00
5:39 AM,60.8,59.0,94,29.83,5.0,SSE,4.6,-,0.00,,Overcast,160,2013-08-02 09:39:00
5:49 AM,60.8,59.0,94,29.83,5.0,Variable,3.5,-,0.01,,Overcast,0,2013-08-02 09:49:00
5:53 AM,60.1,59.0,96,29.83,4.0,SSE,4.6,-,0.01,,Overcast,160,2013-08-02 09:53:00
6:06 AM,60.8,59.0,94,29.83,6.0,SSE,5.8,-,N/A,,Overcast,150,2013-08-02 10:06:00
6:21 AM,60.8,59.0,94,29.83,8.0,SSE,5.8,-,0.00,Rain,Light Rain,160,2013-08-02 10:21:00
6:30 AM,60.8,59.0,94,29.83,6.0,Variable,4.6,-,0.01,Rain,Light Rain,0,2013-08-02 10:30:00
6:53 AM,61.0,59.0,93,29.83,4.0,SSE,5.8,-,0.06,Rain,Rain,160,2013-08-02 10:53:00
7:13 AM,60.8,59.0,94,29.83,4.0,SSE,5.8,-,0.05,Rain,Rain,160,2013-08-02 11:13:00
7:35 AM,60.8,59.0,94,29.84,4.0,Variable,6.9,-,0.09,Rain,Rain,0,2013-08-02 11:35:00
7:53 AM,61.0,59.0,93,29.83,4.0,SSE,6.9,-,0.15,Rain,Rain,150,2013-08-02 11:53:00
8:10 AM,60.8,60.8,100,29.83,4.0,SSE,8.1,-,0.04,Rain,Rain,150,2013-08-02 12:10:00
8:20 AM,60.8,60.8,100,29.83,4.0,SSE,5.8,-,0.06,Rain,Rain,150,2013-08-02 12:20:00
8:42 AM,60.8,60.8,100,29.83,3.0,SSE,8.1,-,0.13,Rain,Rain,150,2013-08-02 12:42:00
8:53 AM,61.0,60.1,97,29.82,4.0,SSE,6.9,-,0.15,Rain,Light Rain,150,2013-08-02 12:53:00
9:03 AM,60.8,60.8,100,29.82,2.5,SSE,6.9,-,0.03,Rain,Rain,150,2013-08-02 13:03:00
9:20 AM,62.6,60.8,94,29.81,4.0,SE,8.1,-,0.08,Rain,Rain,140,2013-08-02 13:20:00
9:40 AM,62.6,60.8,94,29.81,9.0,SSE,10.4,-,0.08,Rain,Light Rain,150,2013-08-02 13:40:00
9:53 AM,63.0,61.0,93,29.81,10.0,Variable,6.9,-,0.09,Rain,Light Rain,0,2013-08-02 13:53:00
10:40 AM,62.6,60.8,94,29.80,7.0,South,8.1,-,0.01,Rain,Light Rain,170,2013-08-02 14:40:00
10:53 AM,64.0,62.1,93,29.79,6.0,South,6.9,-,0.02,Rain,Light Rain,190,2013-08-02 14:53:00
11:53 AM,64.0,62.1,93,29.79,10.0,South,6.9,-,0.00,Rain,Light Rain,180,2013-08-02 15:53:00
12:53 PM,64.0,62.1,93,29.78,4.0,SSW,10.4,16.1,0.01,Rain,Light Rain,200,2013-08-02 16:53:00
1:08 PM,64.4,62.6,94,29.78,2.5,South,5.8,-,0.00,,Overcast,190,2013-08-02 17:08:00
1:26 PM,64.4,62.6,94,29.78,3.0,Variable,6.9,-,0.00,,Overcast,0,2013-08-02 17:26:00
1:35 PM,64.4,62.6,94,29.78,2.0,SSW,5.8,-,0.00,,Overcast,200,2013-08-02 17:35:00
1:41 PM,64.4,62.6,94,29.77,1.8,South,4.6,-,0.00,,Overcast,190,2013-08-02 17:41:00
1:48 PM,64.4,62.6,94,29.77,1.8,South,6.9,-,0.00,Rain,Light Rain,190,2013-08-02 17:48:00
1:53 PM,64.0,62.1,93,29.78,1.8,South,6.9,-,0.00,Rain,Light Rain,190,2013-08-02 17:53:00
2:14 PM,64.4,62.6,94,29.78,1.2,South,6.9,-,0.08,Rain,Heavy Rain,180,2013-08-02 18:14:00
2:19 PM,64.4,62.6,94,29.77,2.0,SSE,5.8,-,0.08,Rain,Rain,160,2013-08-02 18:19:00
2:23 PM,64.4,62.6,94,29.76,3.0,SSE,6.9,-,0.09,Rain,Light Rain,150,2013-08-02 18:23:00
2:32 PM,64.4,62.6,94,29.76,8.0,SSE,5.8,-,0.09,Rain,Light Rain,160,2013-08-02 18:32:00
2:53 PM,64.9,63.0,93,29.76,9.0,South,5.8,-,0.10,Rain,Light Rain,180,2013-08-02 18:53:00
3:15 PM,66.2,62.6,88,29.77,10.0,SSW,6.9,-,0.00,Rain,Light Rain,200,2013-08-02 19:15:00
3:43 PM,66.2,64.4,94,29.75,10.0,SSW,6.9,-,0.00,,Overcast,210,2013-08-02 19:43:00
3:53 PM,66.9,64.0,90,29.75,10.0,South,5.8,-,0.00,,Overcast,190,2013-08-02 19:53:00
4:53 PM,69.1,63.0,81,29.74,10.0,South,6.9,-,N/A,,Scattered Clouds,190,2013-08-02 20:53:00
5:53 PM,66.0,62.1,87,29.74,10.0,Calm,Calm,-,N/A,,Clear,0,2013-08-02 21:53:00
6:53 PM,66.0,63.0,90,29.74,10.0,South,4.6,-,N/A,,Clear,190,2013-08-02 22:53:00
7:53 PM,64.9,62.1,90,29.73,10.0,SSW,4.6,-,0.00,,Clear,200,2013-08-02 23:53:00
8:53 PM,64.0,62.1,93,29.75,10.0,South,3.5,-,N/A,,Clear,180,2013-08-03 00:53:00
9:53 PM,64.0,62.1,93,29.78,10.0,South,5.8,-,N/A,,Overcast,190,2013-08-03 01:53:00
10:53 PM,63.0,60.1,90,29.77,10.0,SSW,8.1,-,N/A,,Partly Cloudy,210,2013-08-03 02:53:00
11:53 PM,61.0,57.0,87,29.76,10.0,SSW,6.9,-,N/A,,Clear,200,2013-08-03 03:53:00